Location: Boiro
(42.6475°N, 8.8834°W)
Time: 00:53:41
(UTC+01:00)

Transit 2A Rocket - Pass Details

Date: 06 December 2021
Orbit: 584 x 917 km, 66.7° (Epoch: 23 January)

Event Time Altitude Azimuth Distance (km) Brightness Sun altitude
Rises 11:02:58 0° 276° (W) 3,436 8.0 16.9°
Reaches altitude 10° 11:07:02 10° 304° (NW) 2,557 7.2 17.3°
Maximum altitude 11:09:40 13° 330° (NNW) 2,376 7.0 17.6°
Drops below altitude 10° 11:12:21 10° 357° (N) 2,607 7.3 17.8°
Sets 11:16:36 0° 24° (NNE) 3,564 8.1 18.2°
